Other Public Products
Issued by NWS Grand Forks, ND

Home | Current Version | Previous Version | Graphics & Text | Print | Product List | Glossary On
Versions: 1 2 3 4 5 6 7 8 9 10 11 12 13 14 15 16 17 18 19 20 21 22 23 24 25 26 27 28 29 30 31 32 33 34 35 36 37 38 39 40 41 42 43 44 45 46 47 48 49 50
018
FPUS83 KFGF 250310
OPUFGF
PRAIRIE TO PINES WEATHER ROUNDUP
NATIONAL WEATHER SERVICE EASTERN NORTH DAKOTA/GRAND FORKS ND
900 PM CST SAT FEB 24 2018

 **SATELLITE DATA USED TO AUGMENT SKY COVER AT AUTOMATED STATIONS**
 *****  WEATHER ACROSS EASTERN NORTH DAKOTA  *****

CITY           SKY/WX    TMP DP  RH WIND       PRES   REMARKS
GRAND FORKS    LGT SNOW  17  14  88 NE3       29.65F VSB 1
GRND FORKS AFB LGT SNOW  16  12  86 SE3       29.64F FOG
GRND FORKS NWS   N/A     15  14  97 VRB2      29.62F
BUXTON           N/A     15  15  98 NW6         N/A  WCI   6
DEVILS LAKE    FLURRIES  17  14  88 S8        29.58F WCI   7
FARGO          LGT SNOW  17  15  92 NW9       29.63F VSB 1   WCI   6
WAHPETON ARPT  CLOUDY    19  18  93 N6        29.60F WCI  11
$$

 *****  WEATHER ACROSS CENTRAL AND WESTERN NORTH DAKOTA  *****

CITY           SKY/WX    TMP DP  RH WIND       PRES   REMARKS
JAMESTOWN      LGT SNOW  15  13  91 SW5       29.59S FOG     WCI   8
BISMARCK       FAIR      11   6  81 SW5       29.60F WCI   3
MINOT          CLOUDY    20  11  68 SW14      29.54F WCI   7
MINOT AFB      CLOUDY    15  10  78 W6          N/A  WCI   7
GARRISON         N/A     12   6  77 W12       29.55F WCI  -2
WILLISTON      CLOUDY    21  17  84 CALM      29.58F
DICKINSON      FAIR      16   8  71 W15       29.55F WCI   1
HETTINGER      FAIR       7   1  76 W9        29.62F WCI  -7
$$

 *****  OTHER OBSERVATIONS NORTHEAST NORTH DAKOTA  *****

CITY           SKY/WX    TMP DP  RH WIND       PRES   REMARKS
WALHALLA       FAIR      18  18 100 SE9       29.62F FOG     WCI   6
LANGDON        NOT AVBL
CAVALIER       LGT SNOW  16  16 100 SE6       29.64F WCI   7
GRAFTON        NOT AVBL
CANDO          CLOUDY    18  18 100 SW6       29.59F WCI   9
FORT TOTTEN      N/A     16  14  90 S7        29.95S WCI   6
ROLLA          CLOUDY    16  16 100 SW9       29.54S WCI   4
RUGBY          NOT AVBL
 ***** THE ABOVE OBSERVATIONS ARE NON NWS ARE NOT QUALITY
        CONTROLLED AND MAY MIS-REPORT RAIN FOR SNOW...
$$

 *****  OTHER OBSERVATIONS SOUTHEAST NORTH DAKOTA *****

CITY           SKY/WX    TMP DP  RH WIND       PRES   REMARKS
COOPERSTOWN    LGT SNOW  16  14  93 SE3       29.60F
VALLEY CITY    NOT AVBL
OAKES            N/A     14  14 100 CALM      29.62F
GWINNER          N/A     16  14  93 W6        29.61F FOG     WCI   7
SHEYENNE NWR     N/A     15  15  98 N5        29.95S WCI   7
BUFFALO          N/A     15  13  90 NW3         N/A
WYNDMERE       NOT AVBL
 ***** THE ABOVE OBSERVATIONS ARE NON NWS ARE NOT QUALITY
       CONTROLLED AND MAY MIS-REPORT RAIN FOR SNOW...
$$

  *****  WEATHER ACROSS NORTHERN MINNESOTA  *****

CITY           SKY/WX    TMP DP  RH WIND       PRES   REMARKS
FLAG ISLAND    CLOUDY    21  10  63 CALM      29.66F
WARROAD        FAIR      21  12  68 CALM      29.66F
ROSEAU         CLOUDY    19  12  73 CALM      29.66F
HALLOCK        LGT SNOW  18  16  93 SE5       29.66F WCI  11
THF RVR FALLS  LGT SNOW  18  16  92 E9        29.64F FOG     WCI   7
HALSTAD        NOT AVBL
FOSSTON        LGT SNOW  18  12  79 NE5       29.61F WCI  11
BAUDETTE       CLOUDY    23  11  60 CALM      29.62F
WASKISH        LGT SNOW  21  19  93 E7        29.62F VSB 1   WCI  13
CROOKSTON      LGT SNOW  21  19  93 E6        29.64F WCI  14
$$
  *****  WEATHER ACROSS CENTRAL AND WEST MINNESOTA  *****

CITY           SKY/WX    TMP DP  RH WIND       PRES   REMARKS
BEMIDJI        LGT SNOW  19  17  94 NE3       29.57F VSB 3/4
PARK RAPIDS    LGT SNOW  20  16  84 NE7       29.54F VSB 1   WCI  11
WADENA         LGT SNOW  19  18  93 N6        29.54F WCI  11
DETROIT LAKES  LGT SNOW  21  19  93 CALM      29.57F
MOORHEAD       LGT SNOW  18  16  93 NW8       29.63F WCI   7
FERGUS FALLS   LGT SNOW  19  18  93 CALM      29.58F
ELBOW LAKE     LGT SNOW  20  19  95 CALM      29.57F
MORRIS MN      LGT SNOW  19  18  93 W6        29.56F WCI  11
STAPLES        LGT SNOW  19  19 100 N7        29.53F WCI  10
WHEATON        LGT SNOW  16  14  93 W5        29.61F WCI   9
$$
  *****  WEATHER ELSEWHERE ACROSS MINNESOTA  *****

CITY           SKY/WX    TMP DP  RH WIND       PRES   REMARKS
DULUTH         SNOW      25  22  88 E21G35    29.53F VSB 1/4 WCI  11
INTRNTL FALLS  CLOUDY    24  15  68 NE6       29.63F WCI  17
ELY            LGT SNOW  23  21  93 E13G20    29.57F WCI  11
CLOQUET        LGT SNOW  25  21  86 E17G24    29.53F WCI  11
BRAINERD       LGT SNOW  24  20  84 NE6       29.53F VSB 3/4 WCI  17
HIBBING        SNOW      23  22  96 E8        29.53F VSB 1/2 WCI  14
ALEXANDRIA     LGT SNOW  20  19  96 NW3       29.54F FOG
SAINT CLOUD    LGT SNOW  26  26 100 SE3       29.50F VSB 1
MINNEAPOLIS    SNOW      29  29 100 E5        29.51F VSB 1/2 WCI  24
$$

  *****  WEATHER ACROSS SOUTH DAKOTA  *****

CITY           SKY/WX    TMP DP  RH WIND       PRES   REMARKS
SIOUX FALLS    CLOUDY    15  11  83 W13       29.65S WCI   1
BROOKINGS      FLURRIES  15  12  88 W17       29.60S WCI  -1
WATERTOWN      CLOUDY    14  13  95 W9        29.57S WCI   2
HURON          FAIR       7   4  87 W9        29.67S FOG     WCI  -7
SISSETON         N/A     15  12  88 NW12      29.60F WCI   2
ABERDEEN       LGT SNOW  14  13  95 W6        29.64F FOG     WCI   5
MITCHELL       FAIR       9   6  88 W12       29.72R WCI  -6
PIERRE         FAIR      15   9  76 W15       29.68F WCI   0
MOBRIDGE       FAIR       9   4  80 NW7       29.60F WCI  -2
RAPID CITY     FAIR      13   7  77 CALM      29.70F
$$

  *****  SOME WEATHER IN NEARBY STATES *****

CITY           SKY/WX    TMP DP  RH WIND       PRES   REMARKS
GLASGOW MT     FLURRIES  22  19  89 W10       29.65S WCI  11
GREAT FALLS MT FAIR      15   6  67 W9        29.71R WCI   3
CHEYENNE WY    FAIR      21   2  43 W33G43    29.74F WCI   2
SCOTTSBLUFF NE FAIR      25  13  60 W15       29.79S WCI  13
OMAHA NE       FAIR      28  24  85 S6        29.75R WCI  22
DES MOINES IA  CLOUDY    31  27  85 W20       29.69R WCI  19
DAVENPORT IA   LGT RAIN  42  40  92 W17G25    29.58S FOG
CHICAGO IL     CLOUDY    45  42  89 SE17      29.56F FOG
EAU CLAIRE WI  SNOW      31  30  96 SE8       29.51F VSB 1/2 WCI  23
LA CROSSE WI   LGT SNOW  33  33 100 SW3       29.53F VSB 3/4
$$

  *****  SOME NATIONAL WEATHER *****

CITY           SKY/WX    TMP DP  RH WIND       PRES   REMARKS
LA GUARDIA NY  LGT RAIN  44  41  89 E14       30.22R
RALEIGH NC     MOCLDY    69  58  67 S9        30.07F
ATLANTA GA     FAIR      71  58  63 S10       30.05S
NEW ORLEANS LA MOCLDY    74  71  91 S7        30.04R
OKLAHOMA CITY  FAIR      38  32  79 CALM      29.99R
ALBUQUERQUE NM FAIR      37   8  30 SW8       30.03R
SALT LAKE CITY CLOUDY    29  17  61 S17       29.99R WCI  17
LOS ANGELES CA FAIR      54  37  52 W15       30.21R
BOISE ID       CLOUDY    29  24  82 W6        30.04R WCI  23
SEATTLE WA     MOCLDY    42  31  64 S7        30.13R
$$

*** WEATHER ACROSS MANITOBA...SASKATCHEWAN AND ONTARIO ***
                ***ONTARIO***

CITY           SKY/WX    TMP DP  RH WIND       PRES   REMARKS
GERALDTON      MOCLDY    19  14  79 SE5       29.87F WCI  13
THUNDER BAY    CLOUDY    21  18  86 E12       29.78F WCI   9
SIOUX LOOKOUT  CLOUDY    25  10  54 SE5       29.71F WCI  19
TORONTO        CLOUDY    36  25  64 E12G21    30.09F
BIG TROUT LK   CLEAR     23  10  58 SW10G18   29.63F WCI  12
PICKLE LAKE    NOT AVBL
DRYDEN         CLOUDY    23  12  63 NE5       29.68F WCI  17
KENORA         CLOUDY    23   9  54 SE8       29.65F WCI  14
$$
                *** MANITOBA***

CITY           SKY/WX    TMP DP  RH WIND       PRES   REMARKS
BRANDON        FLURRIES  10   9  92 SW6       29.56F WCI   1
DAUPHIN        MOCLDY    19  10  68 SW7       29.53F WCI  10
ISLAND LAKE    NOT AVBL
PILOT MOUND      N/A     18  16  93 S12         N/A  WCI   5
THE PAS        FLURRIES  18  12  79 CALM      29.51F
THOMPSON       FLURRIES  14  10  85 S2        29.52R
WINNIPEG       SNOWSHWR  16  14  93 S16       29.64F BLWGSNOWWCI   0
LYNN LAKE      PTCLDY     9   7  92 N3        29.51S
CHURCHILL      PTCLDY     1  -4  78 NW14      29.56R WCI -17
GILLAM         LGT SNOW  14  10  85 SW6       29.54R WCI   5
$$
                ***SASKATCHEWAN***

CITY           SKY/WX    TMP DP  RH WIND       PRES   REMARKS
ESTEVAN        FLURRIES  16  12  86 SW8       29.52F WCI   5
KINDERSLEY     CLOUDY    23  14  68 NW13G22   29.58F WCI  11
LLOYDMINSTER   PTCLDY    14   9  79 NW8       29.55F WCI   3
PRINCE ALBERT  FLURRIES  23  14  68 N15       29.55R WCI  10
REGINA         PTCLDY    10   9  92 W9        29.53S WCI  -2
YORKTON        PTCLDY    18  14  86 SW7       29.49F WC



USA.gov is the U.S. government's official web portal to all federal, state and local government web resources and services.